Weather observations for the past three days for
Copper Mountain - Red Cliff Pass
Imperial (Metric)
Date Time (mdt) Wind (mph) Vis. (mi.) Weather Sky Cond. Temperature (ºF) Relative Humidity Wind Chill (°F) Heat Index (°F) Pressure Precipitation (in)
Air Dwpt 6 hour altimeter (in) sea level (mb) 1 hr 3 hr 6 hr
Max. Min.
25 12:55 W 13 G 21 10.00 Partly Cloudy SCT080 64.4 24.8 22% 30.72 0.0
25 12:35 NW 6 G 17 10.00 Partly Cloudy SCT080 64.4 26.6 24% 30.72 0.0
25 12:15 NW 10 G 25 10.00 Partly Cloudy SCT070 64.4 26.6 24% 30.72 0.0
25 11:55 NW 17 G 23 10.00 Partly Cloudy SCT070 64.4 26.6 24% 30.71 0.0
25 11:35 W 10 G 23 10.00 Partly Cloudy SCT070 64.4 28.4 26% 30.72 0.0
25 11:15 W 12 G 21 10.00 Partly Cloudy SCT070 64.4 26.6 24% 30.71 0.0
25 10:55 NW 10 G 26 10.00 Fair CLR 62.6 24.8 24% 30.7 0.0
25 10:35 NW 15 G 25 10.00 Fair CLR 60.8 26.6 27% 30.69 0.0
25 10:15 NW 22 G 26 10.00 Fair and Breezy CLR 60.8 26.6 27% 30.69 0.0
25 09:55 NW 15 G 23 10.00 Fair CLR 60.8 26.6 27% 30.7 0.0
25 09:35 NW 13 G 17 10.00 Fair CLR 60.8 32 34% 30.69 0.0
25 09:15 NW 8 10.00 Fair CLR 60.8 32 34% 30.7 0.0
25 08:55 W 5 10.00 Fair CLR 59 32 36% 30.69 0.0
25 08:35 W 10 10.00 Fair CLR 59 30.2 34% 30.69 0.0
25 08:15 W 8 10.00 Fair CLR 59 30.2 34% 30.69 0.0
25 07:55 NW 3 10.00 Fair CLR 59 32 36% 30.68 0.0
25 07:35 Calm 10.00 Fair CLR 59 32 36% 30.68 0.0
25 07:15 Calm 10.00 Fair CLR 55.4 32 41% 30.67 0.0
25 06:55 Calm 10.00 Fair CLR 55.4 32 41% 30.67 0.0
25 06:35 W 6 10.00 Fair CLR 53.6 32 44% 30.67 0.0
25 06:15 W 8 10.00 Fair CLR 53.6 33.8 47% 30.66 0.0
25 05:55 W 8 10.00 Fair CLR 53.6 32 44% 30.66 0.0
25 05:35 W 9 10.00 Fair CLR 53.6 33.8 47% 30.66 0.0
25 05:15 W 9 10.00 Fair CLR 53.6 32 44% 30.66 0.0
25 04:55 W 7 10.00 Fair CLR 51.8 32 47% 30.66 0.0
25 04:35 W 7 10.00 Fair CLR 53.6 33.8 47% 30.66 0.0
25 04:15 SW 5 10.00 Fair CLR 53.6 33.8 47% 30.65 0.0
25 03:55 W 6 10.00 Fair CLR 53.6 32 44% 30.64 0.0
25 03:35 SW 3 10.00 Fair CLR 53.6 32 44% 30.65 0.0
25 03:15 W 7 10.00 Fair CLR 53.6 32 44% 30.64 0.0
25 02:55 SW 8 10.00 Fair CLR 53.6 32 44% 30.64 0.0
25 02:35 SW 9 10.00 Fair CLR 53.6 32 44% 30.64 0.0
25 02:15 W 8 10.00 Fair CLR 53.6 32 44% 30.64 0.0
25 01:55 W 7 10.00 Fair CLR 53.6 32 44% 30.64 0.0
25 01:35 W 8 10.00 Fair CLR 53.6 32 44% 30.65 0.0
25 01:15 W 9 10.00 Fair CLR 53.6 32 44% 30.65 0.0
25 00:55 SW 7 10.00 Fair CLR 53.6 30.2 41% 30.66 0.0
25 00:35 SW 10 10.00 Fair CLR 53.6 30.2 41% 30.66 0.0
25 00:15 SW 9 10.00 Fair CLR 53.6 32 44% 30.66 0.0
24 23:55 SW 5 10.00 Partly Cloudy SCT120 53.6 32 44% 30.66 0.0
24 23:35 SW 7 10.00 Mostly Cloudy BKN120 53.6 32 44% 30.66 0.0
24 23:15 Calm 10.00 Partly Cloudy SCT120 55.4 32 41% 30.67 0.0
24 22:55 S 3 10.00 Partly Cloudy SCT100 SCT120 55.4 32 41% 30.67 0.0
24 22:35 S 6 10.00 Mostly Cloudy BKN100 53.6 33.8 47% 30.67 0.0
24 22:15 W 10 10.00 Partly Cloudy SCT110 53.6 33.8 47% 30.67 0.0
24 21:55 W 13 10.00 Fair CLR 55.4 33.8 44% 30.66 0.0
24 21:35 W 5 10.00 Fair CLR 53.6 33.8 47% 30.67 0.0
24 21:15 W 9 10.00 Fair CLR 55.4 33.8 44% 30.66 0.0
24 20:55 W 7 10.00 Partly Cloudy SCT110 55.4 32 41% 30.66 0.0
24 20:35 Calm 10.00 Partly Cloudy SCT110 55.4 33.8 44% 30.66 0.0
24 20:15 W 9 10.00 Partly Cloudy SCT110 59 33.8 39% 30.64 0.0
24 19:55 W 10 10.00 Overcast OVC110 59 35.6 42% 30.64 0.0
24 19:35 NW 12 10.00 Partly Cloudy SCT110 59 35.6 42% 30.65 0.0
24 19:15 W 13 G 21 10.00 Mostly Cloudy SCT090 BKN110 59 33.8 39% 30.64 0.0
24 18:55 W 18 G 24 10.00 Overcast SCT090 OVC110 59 35.6 42% 30.64 0.0
24 18:35 W 15 G 21 10.00 Overcast SCT075 OVC110 59 35.6 42% 30.64 0.0
24 18:15 NW 14 G 17 10.00 Mostly Cloudy SCT090 BKN110 59 33.8 39% 30.64 0.0
24 17:55 W 15 G 20 10.00 Mostly Cloudy BKN090 BKN110 60.8 35.6 39% 30.64 0.0
24 17:35 W 16 G 29 10.00 Overcast SCT060 OVC100 59 35.6 42% 30.64 0.0
24 17:15 W 18 G 25 10.00 Overcast BKN060 OVC080 60.8 33.8 36% 30.63 0.0
24 16:55 E 6 10.00 Mostly Cloudy SCT060 BKN080 BKN110 68 35.6 30% 30.63 0.0
24 16:35 SW 5 10.00 Mostly Cloudy SCT060 BKN100 BKN110 64.4 35.6 34% 30.64 0.0
24 16:15 W 6 10.00 Partly Cloudy SCT060 SCT100 SCT120 68 33.8 28% 30.64 0.0
24 15:55 NW 13 10.00 Mostly Cloudy SCT090 BKN120 66.2 32 28% 30.63 0.0
24 15:35 W 12 10.00 Mostly Cloudy SCT090 BKN120 64.4 32 30% 30.64 0.0
24 15:15 W 13 10.00 Partly Cloudy SCT065 SCT120 64.4 32 30% 30.64 0.0
24 14:55 W 10 G 17 10.00 Fair CLR 68 32 26% 30.65 0.0
24 14:35 W 7 10.00 Partly Cloudy SCT090 SCT110 64.4 32 30% 30.66 0.0
24 14:15 W 6 10.00 Mostly Cloudy SCT070 BKN090 BKN110 64.4 32 30% 30.66 0.0
24 13:55 W 9 10.00 Mostly Cloudy SCT080 BKN100 BKN120 62.6 32 32% 30.67 0.0
24 13:35 W 9 G 17 10.00 Partly Cloudy SCT055 SCT110 62.6 32 32% 30.67 0.0
24 13:15 W 22 G 31 10.00 Mostly Cloudy and Breezy SCT055 SCT080 BKN100 64.4 32 30% 30.67 0.0
24 12:55 W 10 G 24 10.00 Partly Cloudy SCT100 64.4 33.8 32% 30.67 0.0
24 12:35 NW 9 G 17 10.00 Partly Cloudy SCT110 64.4 35.6 34% 30.68 0.0
24 12:15 NW 12 G 20 10.00 Partly Cloudy SCT047 SCT110 62.6 35.6 37% 30.68 0.0
24 11:55 NW 12 G 16 10.00 Mostly Cloudy SCT047 SCT065 BKN110 60.8 37.4 42% 30.68 0.0
24 11:35 NW 15 G 24 10.00 Partly Cloudy SCT045 SCT075 60.8 35.6 39% 30.68 0.0
24 11:15 W 16 G 23 10.00 Partly Cloudy SCT043 SCT075 60.8 37.4 42% 30.68 0.0
24 10:55 NW 12 G 21 10.00 Fair CLR 60.8 37.4 42% 30.68 0.0
24 10:35 NW 17 G 24 10.00 Partly Cloudy SCT042 SCT070 60.8 37.4 42% 30.68 0.0
24 09:55 W 15 G 21 10.00 Partly Cloudy SCT038 59 37.4 45% 30.68 0.0
24 09:35 W 12 G 22 10.00 Partly Cloudy SCT038 59 37.4 45% 30.68 0.0
24 09:15 W 10 10.00 Fair CLR 59 39.2 48% 30.69 0.0
24 08:55 NW 8 10.00 Fair CLR 59 39.2 48% 30.68 0.0
24 08:35 W 8 10.00 Fair CLR 59 41 51% 30.68 0.0
24 08:15 W 8 10.00 Fair CLR 55.4 37.4 51% 30.68 0.0
24 07:55 W 7 10.00 Fair CLR 55.4 37.4 51% 30.67 0.0
24 07:35 W 9 10.00 Fair CLR 53.6 35.6 51% 30.67 0.0
24 07:15 W 8 10.00 Fair CLR 53.6 35.6 51% 30.67 0.0
24 06:55 W 8 10.00 Fair CLR 53.6 35.6 51% 30.67 0.0
24 06:35 W 6 10.00 Fair CLR 53.6 35.6 51% 30.66 0.0
24 06:15 W 6 10.00 Fair CLR 53.6 37.4 54% 30.65 0.0
24 05:55 W 8 10.00 Fair CLR 51.8 35.6 54% 30.64 0.0
24 05:35 W 9 10.00 Fair CLR 53.6 35.6 51% 30.64 0.0
24 05:15 W 9 10.00 Fair CLR 53.6 35.6 51% 30.64 0.0
24 04:55 W 7 10.00 Fair CLR 51.8 35.6 54% 30.64 0.0
24 04:35 W 12 10.00 Fair CLR 51.8 35.6 54% 30.64 0.0
24 04:15 W 12 10.00 Fair CLR 53.6 35.6 51% 30.64 0.0
24 03:55 W 14 10.00 Fair CLR 53.6 35.6 51% 30.64 0.0
24 03:35 W 13 10.00 Fair CLR 53.6 33.8 47% 30.64 0.0
24 03:15 W 12 10.00 Fair CLR 53.6 33.8 47% 30.64 0.0
24 02:55 SW 9 10.00 Fair CLR 53.6 33.8 47% 30.64 0.0
24 02:35 SW 9 10.00 Fair CLR 55.4 32 41% 30.65 0.0
24 02:15 SW 9 10.00 Fair CLR 53.6 32 44% 30.66 0.0
24 01:55 W 8 10.00 Fair CLR 53.6 32 44% 30.66 0.0
24 01:35 SW 7 10.00 Fair CLR 55.4 32 41% 30.67 0.0
24 01:15 SW 6 10.00 Fair CLR 55.4 32 41% 30.67 0.0
24 00:55 W 5 10.00 Partly Cloudy SCT065 59 33.8 39% 30.67 0.0
24 00:35 W 5 10.00 Mostly Cloudy BKN065 57.2 33.8 41% 30.68 0.0
24 00:15 Calm 10.00 Mostly Cloudy BKN065 BKN080 55.4 32 41% 30.68 0.0
23 23:55 W 7 10.00 Partly Cloudy SCT075 SCT090 59 33.8 39% 30.68 0.0
23 23:35 W 8 10.00 Partly Cloudy SCT075 SCT090 59 33.8 39% 30.69 0.0
23 23:15 W 7 10.00 Mostly Cloudy SCT075 BKN090 59 35.6 42% 30.69 0.0
23 22:55 W 8 10.00 Mostly Cloudy BKN075 BKN100 59 35.6 42% 30.69 0.0
23 22:35 W 9 10.00 Mostly Cloudy SCT075 BKN100 59 35.6 42% 30.69 0.0
23 22:15 W 8 10.00 Fair CLR 59 37.4 45% 30.69 0.0
23 21:55 W 5 10.00 Fair CLR 59 37.4 45% 30.69 0.0
23 21:35 W 9 10.00 Partly Cloudy SCT080 SCT090 59 35.6 42% 30.67 0.0
23 21:15 W 9 10.00 Partly Cloudy SCT080 59 37.4 45% 30.67 0.0
23 20:55 W 9 10.00 Fair CLR 59 35.6 42% 30.67 0.0
23 20:35 W 9 10.00 Fair CLR 59 35.6 42% 30.67 0.0
23 20:15 W 9 10.00 Fair CLR 59 37.4 45% 30.67 0.0
23 19:55 W 10 10.00 Fair CLR 60.8 35.6 39% 30.67 0.0
23 19:35 NW 7 10.00 Fair CLR 62.6 35.6 37% 30.66 0.0
23 19:15 NW 5 10.00 Fair CLR 64.4 35.6 34% 30.66 0.0
23 18:35 NW 3 10.00 Partly Cloudy SCT085 SCT110 64.4 32 30% 30.67 0.0
23 17:55 NW 8 10.00 Mostly Cloudy SCT070 SCT085 BKN110 68 32 26% 30.67 0.0
23 17:35 NW 8 10.00 Overcast SCT070 OVC100 68 30.2 24% 30.67 0.0
23 17:15 NW 8 10.00 Mostly Cloudy BKN070 BKN095 66.2 30.2 26% 30.68 0.0
23 16:55 Calm 10.00 Mostly Cloudy SCT070 BKN095 66.2 32 28% 30.69 0.0
23 16:35 NW 6 10.00 Mostly Cloudy BKN095 64.4 32 30% 30.69 0.0
23 16:15 NW 5 10.00 Mostly Cloudy SCT070 BKN095 64.4 32 30% 30.69 0.0
23 15:55 Calm 10.00 Mostly Cloudy SCT070 BKN080 BKN095 64.4 33.8 32% 30.69 0.0
23 15:35 N 3 10.00 Mostly Cloudy SCT070 BKN090 64.4 33.8 32% 30.69 0.0
23 15:15 W 3 10.00 Mostly Cloudy SCT070 BKN090 64.4 32 30% 30.7 0.0
23 14:55 N 3 10.00 Partly Cloudy SCT090 66.2 32 28% 30.7 0.0
23 14:35 W 6 10.00 Partly Cloudy SCT090 64.4 32 30% 30.71 0.0
23 14:15 Calm 10.00 Partly Cloudy SCT080 64.4 32 30% 30.71 0.0
23 13:55 W 7 10.00 Partly Cloudy SCT080 64.4 32 30% 30.72 0.0
23 13:35 NW 6 10.00 Partly Cloudy SCT065 SCT090 62.6 32 32% 30.72 0.0
23 13:15 W 7 G 23 10.00 Partly Cloudy SCT055 60.8 32 34% 30.73 0.0
23 12:55 NW 14 G 23 10.00 Partly Cloudy SCT055 62.6 33.8 34% 30.72 0.0
23 12:35 NW 9 G 23 10.00 Partly Cloudy SCT065 60.8 32 34% 30.73 0.0
23 12:15 NW 20 G 26 10.00 Partly Cloudy SCT055 60.8 33.8 36% 30.73 0.0
23 11:55 NW 15 G 20 10.00 Partly Cloudy SCT060 60.8 33.8 36% 30.73 0.0
23 11:35 NW 14 G 22 10.00 Partly Cloudy SCT060 60.8 32 34% 30.74 0.0
23 11:15 NW 13 G 21 10.00 Partly Cloudy SCT060 60.8 33.8 36% 30.73 0.0
23 10:55 NW 13 G 22 10.00 Partly Cloudy SCT044 60.8 35.6 39% 30.73 0.0
23 10:35 W 13 10.00 Partly Cloudy SCT042 59 37.4 45% 30.73 0.0
23 10:15 W 10 10.00 Fair CLR 59 37.4 45% 30.73 0.0
23 09:55 W 8 G 20 10.00 Fair CLR 59 37.4 45% 30.74 0.0
23 09:35 W 10 10.00 Fair CLR 59 39.2 48% 30.74 0.0
23 09:15 W 7 10.00 Fair CLR 57.2 35.6 44% 30.74 0.0
23 08:55 W 5 10.00 Fair CLR 59 37.4 45% 30.73 0.0
23 08:35 W 3 10.00 Fair CLR 55.4 35.6 47% 30.73 0.0
23 08:15 W 3 10.00 Fair CLR 53.6 33.8 47% 30.73 0.0
23 07:55 NW 3 10.00 Fair CLR 53.6 35.6 51% 30.73 0.0
23 07:35 W 7 10.00 Fair CLR 53.6 35.6 51% 30.72 0.0
23 07:15 W 6 10.00 Fair CLR 53.6 35.6 51% 30.72 0.0
23 06:55 W 9 10.00 Fair CLR 53.6 35.6 51% 30.72 0.0
23 06:35 W 6 10.00 Fair CLR 51.8 35.6 54% 30.72 0.0
23 06:15 SW 3 10.00 Fair CLR 48.2 33.8 58% 30.71 0.0
23 05:55 W 6 10.00 Fair CLR 46.4 32 57% 44 30.71 0.0
23 05:35 W 9 10.00 Fair CLR 51.8 33.8 50% 30.7 0.0
23 05:15 W 8 10.00 Fair CLR 51.8 33.8 50% 30.69 0.0
23 04:55 W 7 10.00 Fair CLR 50 32 50% 48 30.69 0.0
23 04:35 W 9 10.00 Fair CLR 50 32 50% 47 30.69 0.0
23 04:15 W 7 10.00 Fair CLR 50 32 50% 48 30.69 0.0
23 03:55 W 7 10.00 Fair CLR 50 32 50% 48 30.69 0.0
23 03:35 SW 3 10.00 Fair CLR 50 32 50% 30.69 0.0
23 03:15 W 7 10.00 Fair CLR 48.2 32 54% 46 30.69 0.0
23 02:55 Calm 10.00 Fair CLR 50 30.2 47% 30.69 0.0
23 02:35 SW 6 10.00 Fair CLR 51.8 32 47% 30.69 0.0
23 02:15 SW 6 10.00 Fair CLR 51.8 30.2 44% 30.7 0.0
23 01:55 W 8 10.00 Fair CLR 51.8 30.2 44% 30.7 0.0
23 01:35 W 9 10.00 Fair CLR 51.8 32 47% 30.71 0.0
23 01:15 Calm 10.00 Fair CLR 51.8 30.2 44% 30.71 0.0
23 00:55 S 3 10.00 Fair CLR 51.8 32 47% 30.72 0.0
23 00:35 Calm 10.00 Fair CLR 53.6 32 44% 30.72 0.0
23 00:15 S 5 10.00 Fair CLR 53.6 32 44% 30.72 0.0
22 23:55 S 5 10.00 Fair CLR 53.6 32 44% 30.72 0.0
22 23:35 S 5 10.00 Fair CLR 53.6 30.2 41% 30.73 0.0
22 23:15 Calm 10.00 Fair CLR 53.6 28.4 38% 30.73 0.0
22 22:55 S 5 10.00 Fair CLR 53.6 32 44% 30.73 0.0
22 22:35 SW 5 10.00 Fair CLR 53.6 30.2 41% 30.73 0.0
22 22:15 SW 9 10.00 Fair CLR 51.8 30.2 44% 30.73 0.0
22 21:55 SW 7 10.00 Fair CLR 53.6 32 44% 30.73 0.0
22 21:35 SW 5 10.00 Fair CLR 53.6 32 44% 30.73 0.0
22 21:15 S 5 10.00 Fair CLR 51.8 33.8 50% 30.72 0.0
22 20:55 S 6 10.00 Fair CLR 51.8 33.8 50% 30.72 0.0
22 20:35 S 10 G 17 10.00 Fair CLR 51.8 33.8 50% 30.72 0.0
22 20:15 S 15 10.00 Fair CLR 50 35.6 58% 45 30.72 0.0
22 19:55 S 10 10.00 Partly Cloudy SCT120 50 35.6 58% 46 30.72 0.0
22 19:35 SW 7 10.00 Overcast OVC110 48.2 37.4 66% 46 30.73 0.0
22 19:15 S 7 10.00 Overcast SCT041 SCT065 OVC110 48.2 37.4 66% 46 30.74 0.0
22 18:55 SE 6 10.00 Overcast SCT042 BKN050 OVC070 46.4 39.2 76% 44 30.74 0.0
22 18:35 NW 6 10.00 Light Rain SCT007 BKN042 OVC050 44.6 39.2 81% 42 30.75 0.0
22 18:15 W 13 10.00 Light Rain SCT006 SCT011 OVC019 44.6 39.2 81% 39 30.75 0.0
22 17:55 NW 23 G 29 10.00 Overcast and Breezy BKN023 OVC034 46.4 37.4 71% 39 30.73 0.0
22 17:35 NW 5 10.00 Light Rain SCT034 BKN048 OVC065 51.8 37.4 58% 30.73 0.0
22 17:15 NW 3 G 20 10.00 Overcast SCT038 OVC065 53.6 37.4 54% 30.72 0.0
22 16:55 NW 14 G 25 10.00 Overcast SCT050 OVC065 53.6 35.6 51% 30.7 0.0
22 16:35 W 20 G 26 10.00 Mostly Cloudy SCT065 BKN075 BKN095 59 35.6 42% 30.69 0.0
22 16:15 SW 9 G 20 10.00 Mostly Cloudy SCT060 BKN080 BKN090 60.8 32 34% 30.69 0.0
22 15:55 SW 9 G 20 10.00 Mostly Cloudy SCT060 SCT070 BKN090 62.6 32 32% 30.68 0.0
22 15:35 W 12 G 22 10.00 Mostly Cloudy BKN100 60.8 32 34% 30.69 0.0
22 15:15 W 9 10.00 Mostly Cloudy SCT075 BKN100 64.4 35.6 34% 30.69 0.0
22 14:55 W 6 G 21 10.00 Light Rain SCT029 SCT065 BKN090 59 32 36% 30.69 0.0
22 14:35 W 10 G 20 10.00 Mostly Cloudy SCT070 SCT095 BKN120 59 32 36% 30.69 0.0
22 14:15 W 15 G 21 10.00 Partly Cloudy SCT095 SCT120 60.8 33.8 36% 30.69 0.0
22 13:55 W 13 10.00 Mostly Cloudy SCT049 SCT075 BKN095 59 33.8 39% 30.69 0.0
22 13:35 W 20 G 26 10.00 Mostly Cloudy SCT049 SCT070 BKN090 59 33.8 39% 30.69 0.0
Date Time (mdt) Wind (mph) Vis. (mi.) Weather Sky Cond. Air Dwpt Max. Min. Relative Humidity Wind Chill (°F) Heat Index (°F) altimeter (in) sea level (mb) 1 hr 3 hr 6 hr
6 hour
Temperature (ºF) Pressure Precipitation (in)